Weather History for KCKN - January, 2014

Change the Weather History Date:

Monday, January 27, 2014

  Actual Average Record
Temperature  
Mean Temperature -18 °F -  
Max Temperature -11 °F 14 °F 35 °F (2006)
Min Temperature -25 °F 1 °F -27 °F (1997)
Degree Days  
Heating Degree Days 83    
Moisture  
Dew Point -24 °F    
Average Humidity 72    
Maximum Humidity 77    
Minimum Humidity 64    
Precipitation  
Precipitation 0.00 in - - ()
Sea Level Pressure  
Sea Level Pressure 30.37 in    
Wind  
Wind Speed 14 mph (NW)    
Max Wind Speed 24 mph    
Max Gust Speed 29 mph    
Visibility 9 miles    
Events      
Averages and records for this station are not official NWS values.
T = Trace of Precipitation, MM = Missing Value Source: NWS Daily Summary

Daily Weather History Graph

Daily Weather History Graph

Search for Another Location

Airport or City:

Trip Planner

Search our weather history database for the weather conditions in past years. The results will help you decide how hot, cold, wet, or windy it might be!

Date:

Astronomy

Jan. 27, 2014 Rise Set
Actual Time 7:59 AM CST 5:19 PM CST
Civil Twilight 7:26 AM CST 5:53 PM CST
Nautical Twilight 6:48 AM CST 6:30 PM CST
Astronomical Twilight 6:12 AM CST 7:07 PM CST
Moon 4:45 AM CST (1/27) 2:03 PM CST (1/27)
Length of Visible Light 10h 26m
Length of Day
9h 19m
Waning Crescent, 14% of the Moon is Illuminated
Jan 27
Waning Crescent
Jan 30
New
Feb 6
First Quarter
Feb 14
Full
Feb 22
Last Quarter

Hourly Weather History & Observations

Time (CST) Temp. Windchill Dew Point Humidity Pressure Visibility Wind Dir Wind Speed Gust Speed Precip Events Conditions
12:15 AM -14.8 °F -42.4 °F -20.2 °F 77% 30.26 in 1.8 mi NNW 21.9 mph 27.6 mph 0.01 in   Haze
12:34 AM -14.8 °F -42.9 °F -20.2 °F 77% 30.26 in 2.5 mi NNW 23.0 mph - 0.01 in   Haze
12:55 AM -14.8 °F -43.5 °F -20.2 °F 77% 30.27 in 2.5 mi NNW 24.2 mph 27.6 mph N/A   Haze
1:15 AM -16.6 °F -45.3 °F -22.0 °F 76% 30.27 in 2.5 mi NNW 23.0 mph 28.8 mph N/A   Clear
1:34 AM -16.6 °F -42.1 °F -22.0 °F 76% 30.28 in 5.0 mi NNW 17.3 mph - N/A   Haze
1:55 AM -16.6 °F -42.9 °F -22.0 °F 76% 30.29 in 7.0 mi NNW 18.4 mph - N/A   Clear
2:14 AM -16.6 °F -42.1 °F -22.0 °F 76% 30.30 in 5.0 mi NNW 17.3 mph - N/A   Haze
2:35 AM -16.6 °F -41.4 °F -23.8 °F 70% 30.31 in 5.0 mi NNW 16.1 mph - N/A   Haze
2:55 AM -16.6 °F -42.1 °F -22.0 °F 76% 30.32 in 4.0 mi NNW 17.3 mph 21.9 mph N/A   Haze
3:14 AM -16.6 °F -42.1 °F -22.0 °F 76% 30.33 in 3.0 mi NNW 17.3 mph - N/A   Haze
3:35 AM -16.6 °F -41.4 °F -23.8 °F 70% 30.34 in 4.0 mi NNW 16.1 mph - N/A   Haze
3:55 AM -18.4 °F -42.1 °F -23.8 °F 76% 30.35 in 10.0 mi NW 13.8 mph - N/A   Scattered Clouds
4:14 AM -18.4 °F -40.2 °F -25.6 °F 70% 30.35 in 10.0 mi NNW 11.5 mph - N/A   Clear
4:35 AM -18.4 °F -42.9 °F -25.6 °F 70% 30.35 in 10.0 mi NNW 15.0 mph - N/A   Clear
4:55 AM -18.4 °F -42.9 °F -25.6 °F 70% 30.36 in 10.0 mi NNW 15.0 mph - N/A   Clear
5:14 AM -18.4 °F -40.2 °F -25.6 °F 70% 30.37 in 10.0 mi NNW 11.5 mph - N/A   Clear
5:35 AM -20.2 °F -42.4 °F -27.4 °F 69% 30.38 in 10.0 mi NW 11.5 mph - N/A   Clear
5:55 AM -20.2 °F -41.3 °F -27.4 °F 69% 30.38 in 10.0 mi NW 10.4 mph - N/A   Clear
6:14 AM -20.2 °F -40.1 °F -27.4 °F 69% 30.38 in 10.0 mi NNW 9.2 mph - N/A   Clear
6:35 AM -22.0 °F -41.0 °F -29.2 °F 69% 30.39 in 10.0 mi NW 8.1 mph - N/A   Clear
6:55 AM -23.8 °F -43.2 °F -29.2 °F 76% 30.39 in 10.0 mi NW 8.1 mph - N/A   Clear
7:14 AM -23.8 °F -46.9 °F -29.2 °F 76% 30.40 in 10.0 mi NW 11.5 mph - N/A   Clear
7:35 AM -23.8 °F -45.8 °F -29.2 °F 76% 30.40 in 10.0 mi NW 10.4 mph - N/A   Clear
7:55 AM -23.8 °F -46.9 °F -29.2 °F 76% 30.40 in 10.0 mi NW 11.5 mph - N/A   Clear
8:14 AM -23.8 °F -45.8 °F -29.2 °F 76% 30.40 in 10.0 mi NW 10.4 mph - N/A   Clear
8:35 AM -23.8 °F -45.8 °F -29.2 °F 76% - 10.0 mi NW 10.4 mph - N/A   Clear
8:55 AM -25.6 °F -45.4 °F -31.0 °F 76% 30.41 in 10.0 mi WNW 8.1 mph - N/A   Clear
9:14 AM -23.8 °F -43.2 °F -29.2 °F 76% 30.42 in 10.0 mi NW 8.1 mph - N/A   Clear
9:35 AM -22.0 °F -42.3 °F -29.2 °F 69% 30.42 in 10.0 mi WNW 9.2 mph - N/A   Clear
9:54 AM -20.2 °F -41.3 °F -27.4 °F 69% 30.42 in 10.0 mi NW 10.4 mph - N/A   Clear
10:14 AM -20.2 °F -41.3 °F -27.4 °F 69% 30.43 in 10.0 mi NW 10.4 mph - N/A   Clear
10:35 AM -18.4 °F -40.2 °F -25.6 °F 70% 30.43 in 10.0 mi NW 11.5 mph - N/A   Clear
10:54 AM -16.6 °F -35.7 °F -23.8 °F 70% 30.43 in 10.0 mi WNW 9.2 mph - N/A   Clear
11:15 AM -16.6 °F -36.8 °F -23.8 °F 70% 30.43 in 10.0 mi WNW 10.4 mph - N/A   Clear
11:35 AM -14.8 °F -36.6 °F -23.8 °F 64% 30.43 in 10.0 mi WNW 12.7 mph - N/A   Clear
11:54 AM -14.8 °F -36.6 °F -22.0 °F 70% 30.43 in 10.0 mi NW 12.7 mph - N/A   Clear
12:15 PM -14.8 °F -36.6 °F -20.2 °F 77% 30.43 in 10.0 mi WNW 12.7 mph - N/A   Clear
12:35 PM - - - N/A% 30.42 in 10.0 mi WNW 11.5 mph - N/A   Clear
12:54 PM -13.0 °F -32.4 °F -20.2 °F 70% 30.42 in 10.0 mi WNW 10.4 mph - N/A   Clear
1:14 PM -13.0 °F -31.3 °F -20.2 °F 70% 30.42 in 10.0 mi WNW 9.2 mph - N/A   Clear
1:35 PM -11.2 °F -29.0 °F -20.2 °F 64% 30.41 in 7.0 mi WNW 9.2 mph - N/A   Clear
1:54 PM -11.2 °F -27.8 °F -18.4 °F 70% 30.40 in 5.0 mi WNW 8.1 mph - N/A   Haze
2:15 PM -11.2 °F -26.4 °F -18.4 °F 70% 30.40 in 5.0 mi WNW 6.9 mph - N/A   Haze
2:35 PM -11.2 °F -29.0 °F -18.4 °F 70% 30.39 in 7.0 mi NW 9.2 mph - N/A   Clear
2:54 PM -11.2 °F -29.0 °F -18.4 °F 70% 30.39 in 10.0 mi NW 9.2 mph - N/A   Clear
3:15 PM -11.2 °F -27.8 °F -18.4 °F 70% 30.39 in 10.0 mi WNW 8.1 mph - N/A   Clear
3:34 PM -11.2 °F -30.1 °F -18.4 °F 70% 30.39 in 10.0 mi WNW 10.4 mph - N/A   Clear
3:55 PM -11.2 °F -29.0 °F -18.4 °F 70% 30.39 in 10.0 mi NW 9.2 mph - N/A   Clear
4:14 PM -11.2 °F -29.0 °F -18.4 °F 70% 30.39 in 10.0 mi NW 9.2 mph - N/A   Clear
4:35 PM -11.2 °F -27.8 °F -18.4 °F 70% 30.39 in 10.0 mi NW 8.1 mph - N/A   Clear
4:54 PM -13.0 °F -30.0 °F -20.2 °F 70% 30.39 in 10.0 mi NW 8.1 mph - N/A   Clear
5:14 PM -13.0 °F -31.3 °F -20.2 °F 70% 30.39 in 10.0 mi NW 9.2 mph - N/A   Clear
5:35 PM -14.8 °F -32.2 °F -22.0 °F 70% 30.39 in 10.0 mi NW 8.1 mph - N/A   Clear
5:54 PM -16.6 °F -32.9 °F -23.8 °F 70% 30.39 in 10.0 mi WNW 6.9 mph - N/A   Clear
6:14 PM -18.4 °F -35.1 °F -23.8 °F 76% 30.39 in 10.0 mi West 6.9 mph - N/A   Clear
6:35 PM -16.6 °F - -23.8 °F 70% 30.39 in 10.0 mi North - - N/A   Clear
6:54 PM -16.6 °F -34.4 °F -23.8 °F 70% 30.39 in 10.0 mi West 8.1 mph - N/A   Clear
7:15 PM -18.4 °F -35.1 °F -25.6 °F 70% 30.38 in 10.0 mi West 6.9 mph - N/A   Clear
7:35 PM -18.4 °F -36.6 °F -25.6 °F 70% 30.38 in 10.0 mi West 8.1 mph - N/A   Clear
7:54 PM -18.4 °F -37.9 °F -25.6 °F 70% 30.38 in 10.0 mi West 9.2 mph - N/A   Clear
8:15 PM -20.2 °F -40.1 °F -25.6 °F 76% 30.37 in 10.0 mi West 9.2 mph - N/A   Clear
8:34 PM -20.2 °F -37.3 °F -27.4 °F 69% 30.37 in 10.0 mi West 6.9 mph - N/A   Clear
8:55 PM -22.0 °F -41.0 °F -27.4 °F 76% 30.37 in 10.0 mi West 8.1 mph - N/A   Clear
9:15 PM -20.2 °F -38.8 °F -25.6 °F 76% 30.36 in 10.0 mi West 8.1 mph - N/A   Clear
9:35 PM -20.2 °F -40.1 °F -25.6 °F 76% 30.36 in 10.0 mi West 9.2 mph - N/A   Clear
9:55 PM -20.2 °F -38.8 °F -27.4 °F 69% 30.36 in 10.0 mi West 8.1 mph - N/A   Clear
10:14 PM -20.2 °F -41.3 °F -27.4 °F 69% 30.35 in 10.0 mi WNW 10.4 mph - N/A   Clear
10:35 PM -20.2 °F -38.8 °F -27.4 °F 69% 30.35 in 10.0 mi WNW 8.1 mph - N/A   Clear
10:55 PM -22.0 °F -41.0 °F -27.4 °F 76% 30.35 in 10.0 mi West 8.1 mph - N/A   Clear
11:14 PM -22.0 °F -39.4 °F -27.4 °F 76% 30.34 in 10.0 mi WNW 6.9 mph - N/A   Clear
11:35 PM -22.0 °F -39.4 °F -27.4 °F 76% 30.34 in 10.0 mi West 6.9 mph - N/A   Clear
11:54 PM -22.0 °F -41.0 °F -27.4 °F 76% 30.34 in 10.0 mi WNW 8.1 mph - N/A   Clear